Home > Weather > Kashgar > Past weeks

Flag for China Past Weather in Kashgar, Xinjiang, China — Yesterday and Last 2 Weeks

Now
64 °F

Passing clouds.


Feels Like: 64 °F
Forecast: 58 / 67 °F
Wind: 8 mph from Northeast

Location: Kashi Airport

Current Time: May 24, 2016 at 9:58:25 PM

Latest Report: May 24, 2016 at 9:00 PM


Visibility: N/A

Pressure: 30.01 "Hg (25.77 "Hg at 1298m altitude)

Humidity: 52%

Dew Point: 46 °F

Location of KashgarLocation

Past Weather in Kashgar — Graph

°F

Kashgar Temperature Yesterday

Maximum temperature yesterday: 79 °F (at 6:00 PM)
Minimum temperature yesterday: 63 °F (at 7:00 AM)
Average temperature yesterday: 71 °F

High & Low Weather Summary for the Past Weeks

 TemperatureHumidityPressure
High91 °F (May 10, 4:00 PM)88% (May 15, 12:00 AM)30.24 "Hg (May 15, 12:00 AM)
Low54 °F (May 15, 12:00 AM)7% (May 18, 3:00 PM)29.65 "Hg (May 18, 5:00 PM)
Average70 °F32%29.95 "Hg
* Reported May 9 8:00 PM — May 24 8:00 PM, Kashgar, Weather by CustomWeather, © 2016

Note: Actual official high and low records may vary slightly from our data, if they occured in-between our weather recording intervals... More about our weather records

Advertising

Kashgar Weather History for the Previous 24 Hours

Scroll right to see more
 ConditionsComfort  
Time TempWeatherWind HumidityBarometerVisibility
8:00 PM
Tue, May 24
68 °FScattered clouds.10 mph46%29.98 "HgN/A
7:00 PM68 °FScattered clouds.15 mph46%29.95 "HgN/A
6:00 PM70 °FScattered clouds.10 mph50%29.92 "HgN/A
5:00 PM73 °FScattered clouds.15 mph36%29.92 "Hg5 mi
4:00 PM75 °FScattered clouds.13 mph31%29.89 "Hg6 mi
3:00 PM73 °FScattered clouds.15 mph36%29.89 "HgN/A
2:00 PM75 °FPartly sunny.15 mph34%29.89 "HgN/A
1:00 PM73 °FPartly sunny.13 mph38%29.89 "HgN/A
12:00 PM72 °FPartly sunny.10 mph38%29.89 "HgN/A
11:00 AM70 °FPartly sunny.10 mph40%29.86 "HgN/A
10:00 AM68 °FPartly sunny.10 mph40%29.83 "HgN/A
9:00 AM70 °FPartly sunny.8 mph25%29.83 "HgN/A
8:00 AM68 °FScattered clouds.8 mph28%29.80 "HgN/A
7:00 AM70 °FSunny.10 mph27%29.77 "Hg10 mi
6:00 AM66 °FPassing clouds.3 mph52%29.80 "HgN/A
5:00 AM66 °FClear.1 mph52%29.80 "Hg10 mi
4:00 AM68 °FClear.3 mph46%29.80 "Hg10 mi
3:00 AM68 °FClear.6 mph46%29.80 "Hg10 mi
2:00 AM70 °FClear.8 mph38%29.83 "Hg10 mi
1:00 AM70 °FPassing clouds.10 mph40%29.83 "HgN/A
12:00 AM72 °FClear.20 mph36%29.80 "Hg10 mi
11:00 PM
Mon, May 23
75 °FSprinkles. Passing clouds.10 mph27%29.77 "Hg5 mi
10:00 PM75 °FPassing clouds.8 mph24%29.74 "Hg5 mi
9:00 PM77 °FPassing clouds.3 mph18%29.74 "Hg5 mi
Weather by CustomWeather, © 2016

See weather overviewHow to use our weather pages